www.pogodaiklimat.ru

Погода и климат >> Архив погоды >> Великобритания >> Озеро Гласкарнок


ПОГОДА на Озере Гласкарнок

  • Прогноз погоды на Озере Гласкарнок
  • Монитор погоды на Озере Гласкарнок

АРХИВ ПОГОДЫ на Озере Гласкарнок

Время (UTC), дата Ветер
(напр.,м/с)
 
Видим.   Явления Облачность Т
(С)
Тd
(С)
f
(%)
Тe
(С)
Тes
(С)
Комфортность P
(гПа)
Po
(гПа)
Тmin
(С)
Tmax
(С)
R
(мм)
R24
(мм)
S
(см)
01 13.09 З 8 15 км слаб. ливневой дождь н/о +9.0 +6.4 84 +5 +5 1026.1 993.2
02 13.09 З 6 28 км в посл. час дождь н/о +8.0 +6.3 89 +4 +4 1026.6 993.7
03 13.09 З 9 30 км в посл. час дождь н/о +8.2 +5.1 81 +3 +3 1026.8 993.8
04 13.09 З 11
{15}
25 км в посл. час дождь н/о +8.7 +5.1 78 +4 +4 1026.7 993.8
05 13.09 З 11
{15}
22 км н/о +9.1 +5.1 76 +4 +4 1027.2 994.3
06 13.09 З 10
{16}
22 км н/о +9.1 +4.9 75 +4 +4 1027.7 994.9 +7.3 5
07 13.09 З 9-14
{15}
28 км н/о +9.6 +4.9 72 +5 +5 1028.3 995.5
08 13.09 З 12-17
{17}
19 км н/о +10.2 +5.3 72 +6 +6 1028.8 996.0
09 13.09 З 11
{16}
35 км н/о +11.2 +6.6 73 +7 +7 1029.2 996.5
10 13.09 З 11-17
{17}
11 км ливневой дождь н/о +9.8 +6.9 82 +5 +5 1030.3 997.5
11 13.09 З 10
{15}
30 км в посл. час дождь н/о +13.0 +7.3 68 +10 +10 1029.9 997.4
12 13.09 З 10
{16}
27 км н/о +12.7 +5.8 63 +9 +9 1030.5 997.9 0.2
13 13.09 З 9
{15}
17 км слаб. морось с дождем н/о +11.9 +6.5 69 +8 +8 1031.3 998.7
14 13.09 З 8
{17}
16 км в посл. час дождь н/о +12.3 +5.6 64 +9 +9 1031.2 998.6
15 13.09 ЮЗ 9
{13}
18 км н/о +12.2 +6.3 67 +9 +9 1031.0 998.4
16 13.09 З 6
{15}
28 км слаб. ливневой дождь н/о +11.6 +7.9 78 +9 +9 1031.4 998.7
17 13.09 З 7 11 км н/о +11.3 +7.2 76 +8 +8 1031.5 998.8
18 13.09 З 8 30 км в посл. час дождь н/о +11.5 +6.3 70 +8 +8 1031.3 998.6 +13.9 0.6
19 13.09 З 5 45 км слаб. ливневой дождь н/о +10.7 +7.6 81 +8 +8 1031.3 998.5
20 13.09 З 6 30 км в посл. час дождь н/о +11.0 +6.7 75 +8 +8 1031.5 998.7
21 13.09 З 6 6000 м ливневой дождь н/о +10.3 +7.5 83 +7 +7 1031.6 998.7
22 13.09 З 5 35 км слаб. морось с дождем н/о +10.3 +7.2 81 +7 +7 1031.3 998.5
23 13.09 ЮЗ 6 29 км в посл. час дождь н/о +11.0 +6.7 75 +8 +8 1031.0 998.2
00 14.09 З 5 28 км в посл. час дождь н/о +10.5 +7.3 81 +8 +8 1030.6 997.8 0.2
01 14.09 ЮЗ 9-15
{15}
35 км в посл. час дождь н/о +10.7 +6.7 76 +7 +7 1029.6 996.8
02 14.09 ЮЗ 9-16
{16}
26 км н/о +10.8 +5.9 72 +7 +7 1028.5 995.8
03 14.09 ЮЗ 6
{14}
30 км н/о +10.7 +6.3 74 +8 +8 1027.3 994.6
04 14.09 ЮЗ 5 40 км н/о +11.1 +5.7 69 +8 +8 1026.0 993.4
05 14.09 ЮЗ 7
{13}
40 км в посл. час дождь н/о +11.7 +6.1 68 +9 +9 1023.3 990.9
06 14.09 ЮЗ 14-20
{23}
50 км слаб. ливневой дождь н/о +11.3 +5.2 66 +7 +7 1020.9 988.5 +10.1 0.4
07 14.09 ЮЗ 13-21
{22}
15 км слаб. ливневой дождь н/о +10.1 +7.3 83 +5 +5 1020.6 988.1
08 14.09 ЮЗ 13-20
{27}
35 км в посл. час дождь н/о +11.2 +8.3 82 +7 +7 1020.4 988.0
09 14.09 ЮЗ 13-23
{23}
6000 м слаб. ливневой дождь н/о +11.6 +9.4 86 +7 +7 1018.9 986.6
10 14.09 ЮЗ 16-25
{25}
21 км в посл. час дождь н/о +13.0 +10.2 83 +9 +9 1018.0 985.8
11 14.09 ЮЗ 14-21
{22}
4100 м слаб. морось с дождем н/о +13.5 +11.1 85 +10 +10 1015.9 983.9
12 14.09 ЮЗ 11-17
{22}
6000 м слаб. ливневой дождь н/о +13.6 +11.3 86 +10 +10 1014.8 982.8 0.8
13 14.09 З 16-25
{25}
2900 м в посл. час дождь н/о +14.4 +11.7 84 +11 +11 1014.0 982.1
14 14.09 З 16-23
{24}
4700 м дождь н/о +14.3 +11.5 83 +11 +11 1013.2 981.3
15 14.09 З 14
{24}
4700 м слаб. дождь н/о +14.5 +12.0 85 +11 +11 1012.1 980.3
16 14.09 З 13 3200 м дождь н/о +14.6 +11.9 84 +12 +12 1011.8 980.1
17 14.09 З 12-19
{19}
3000 м дождь н/о +13.1 +11.1 88 +9 +9 1012.4 980.4
18 14.09 З 15-22
{22}
4700 м дождь н/о +11.2 +8.6 84 +6 +6 1013.5 981.3 +14.8 13
19 14.09 З 13
{21}
8000 м дождь н/о +10.1 +6.8 80 +5 +5 1013.8 981.5
20 14.09 З 12
{19}
15 км в посл. час дождь н/о +10.4 +6.8 78 +6 +6 1014.7 982.3
21 14.09 З 13-19
{21}
16 км н/о +10.5 +5.6 72 +6 +6 1014.4 982.1
22 14.09 З 13-21
{21}
14 км в посл. час дождь н/о +10.5 +6.0 74 +6 +6 1013.8 981.5
23 14.09 З 13
{20}
15 км в посл. час дождь н/о +9.7 +5.1 73 +5 +5 1014.3 981.9
00 15.09 З 15-22
{22}
15 км н/о +9.6 +5.0 73 +4 +4 1014.3 981.9 2
01 15.09 З 13-20
{21}
14 км н/о +9.5 +4.5 71 +4 +4 1014.6 982.2
02 15.09 З 13-19
{22}
14 км слаб. ливневой дождь н/о +8.8 +4.5 74 +3 +3 1015.9 983.3
03 15.09 З 13-18
{18}
11 км в посл. час дождь н/о +9.1 +4.0 70 +4 +4 1016.1 983.6
04 15.09 З 14
{20}
14 км н/о +8.7 +2.3 64 +3 +3 1016.3 983.8
05 15.09 З 13
{18}
14 км н/о +8.8 +3.2 68 +3 +3 1016.5 983.9
06 15.09 З 10
{17}
14 км н/о +8.4 +4.1 74 +3 +3 1016.6 984.0 +8.4 2
07 15.09 З 14-20
{20}
14 км н/о +9.0 +3.7 69 +4 +4 1016.7 984.2
08 15.09 З 13-18
{19}
14 км н/о +9.2 +4.4 72 +4 +4 1016.9 984.4
09 15.09 З 13
{21}
13 км н/о +9.5 +4.5 71 +4 +4 1017.3 984.8
10 15.09 З 12-17
{20}
18 км н/о +10.9 +3.6 61 +7 +7 1017.9 985.6
11 15.09 З 10-15
{17}
13 км н/о +10.4 +5.1 70 +6 +6 1019.2 986.7
12 15.09 З 9
{14}
15 км н/о +10.8 +3.5 61 +7 +7 1019.9 987.5
13 15.09 З 8
{13}
27 км н/о +11.6 +4.3 61 +8 +8 1020.0 987.6
14 15.09 З 8 17 км н/о +10.7 +3.9 63 +7 +7 1020.3 987.8
15 15.09 З 8 10 км слаб. ливневой дождь н/о +9.3 +4.9 74 +5 +5 1020.9 988.2
16 15.09 З 6 20 км в посл. час дождь н/о +10.0 +4.5 69 +7 +7 1020.4 987.9
17 15.09 З 8 28 км в посл. час дождь н/о +9.7 +3.5 65 +6 +6 1020.3 987.7
18 15.09 З 5 35 км н/о +8.8 +3.3 68 +5 +5 1020.7 988.0 +12.5 0.0
19 15.09 З 5 30 км н/о +8.3 +3.7 73 +5 +5 1020.8 988.1
20 15.09 З 5 30 км н/о +8.1 +3.9 75 +4 +4 1021.0 988.2
21 15.09 З 3 30 км н/о +6.9 +3.6 79 +4 +4 1021.5 988.5
22 15.09 З 2 29 км в посл. час дождь н/о +7.4 +5.1 85 +6 +6 1021.2 988.3
23 15.09 З 7 30 км в посл. час дождь н/о +8.6 +4.0 73 +5 +5 1020.6 987.8
00 16.09 З 6 35 км н/о +7.9 +3.9 76 +4 +4 1020.7 987.9 0.0
01 16.09 З 6 35 км н/о +7.8 +3.4 74 +4 +4 1020.4 987.6
02 16.09 З 8 35 км н/о +8.6 +4.0 73 +4 +4 1020.4 987.7
03 16.09 З 6
{14}
40 км н/о +8.8 +3.6 70 +5 +5 1020.0 987.3
04 16.09 З 3 50 км в посл. час дождь н/о +7.7 +5.1 84 +5 +5 1020.0 987.2
05 16.09 З 3 45 км слаб. ливневой дождь н/о +7.6 +6.1 90 +5 +5 1019.7 986.9
06 16.09 З 5 45 км в посл. час дождь н/о +7.9 +4.9 81 +4 +4 1019.0 986.3 +5.7 0.0
07 16.09 З 5 30 км слаб. ливневой дождь н/о +7.9 +6.5 91 +4 +4 1019.1 986.4
08 16.09 З 6 45 км в посл. час дождь н/о +8.1 +7.1 93 +4 +4 1019.2 986.5
09 16.09 З 8
{13}
45 км в посл. час дождь н/о +9.1 +6.3 83 +5 +5 1019.2 986.6
10 16.09 З 10
{14}
45 км в посл. час дождь н/о +10.2 +5.9 75 +6 +6 1019.3 986.8
11 16.09 З 9
{16}
30 км в посл. час дождь н/о +11.7 +7.2 74 +8 +8 1019.1 986.7
12 16.09 З 11
{16}
6000 м слаб. ливневой дождь н/о +11.1 +8.1 82 +7 +7 1019.3 986.9 0.6
13 16.09 З 11
{16}
24 км в посл. час дождь н/о +12.2 +7.3 72 +8 +8 1019.3 987.0
14 16.09 З 8
{16}
12 км слаб. ливневой дождь н/о +9.6 +7.8 89 +5 +5 1019.7 987.2
15 16.09 З 10
{14}
45 км в посл. час дождь н/о +10.6 +6.7 77 +6 +6 1019.4 986.9
16 16.09 З 10
{14}
30 км н/о +10.5 +5.9 73 +6 +6 1019.6 987.2
17 16.09 З 9
{14}
7000 м ливневой дождь н/о +8.8 +7.3 90 +4 +4 1020.2 987.5
18 16.09 З 11
{15}
18 км в посл. час дождь н/о +8.8 +4.9 76 +4 +4 1020.2 987.5 +12.5 2
19 16.09 З 12
{16}
20 км н/о +8.2 +3.0 70 +3 +3 1020.5 987.7
20 16.09 З 11
{15}
26 км н/о +8.5 +2.7 67 +4 +4 1020.7 988.0
21 16.09 З 7
{14}
20 км н/о +7.6 +3.8 77 +3 +3 1020.9 988.1
22 16.09 З 8
{13}
17 км слаб. ливневой дождь н/о +7.1 +6.1 93 +2 +2 1021.4 988.5
23 16.09 З 7 18 км в посл. час дождь н/о +7.4 +5.6 88 +3 +3 1021.5 988.6
00 17.09 З 9 22 км н/о +6.6 +3.7 82 +1 +1 1021.5 988.5 1
01 17.09 З 8 22 км н/о +6.1 +2.9 80 +1 +1 1021.9 988.9
02 17.09 З 8 23 км н/о +6.1 +2.5 78 +1 +1 1022.1 989.0
03 17.09 З 8 19 км н/о +6.5 +2.7 77 +1 +1 1022.5 989.5
04 17.09 СЗ 9 25 км в посл. час дождь н/о +6.7 +3.7 81 +1 +1 1022.7 989.7
05 17.09 СЗ 9 21 км в посл. час дождь н/о +7.2 +4.0 80 +2 +2 1023.0 990.0
06 17.09 СЗ 8
{13}
7000 м ливневой дождь н/о +6.9 +5.0 88 +2 +2 1023.8 990.8 +5.9 2
07 17.09 З 7
{13}
23 км в посл. час дождь н/о +7.1 +4.8 85 +2 +2 1024.3 991.3
08 17.09 СЗ 5 18 км слаб. ливневой дождь н/о +7.5 +5.3 86 +4 +4 1025.3 992.3
09 17.09 З 5 19 км в посл. час дождь н/о +8.6 +4.5 75 +5 +5 1025.8 993.0
10 17.09 З 7 26 км н/о +10.2 +4.8 69 +7 +7 1026.2 993.5
11 17.09 З 8 30 км н/о +10.0 +3.4 64 +6 +6 1026.4 993.6
12 17.09 З 5 30 км н/о +10.2 +3.1 61 +7 +7 1026.9 994.2 0.6
13 17.09 СЗ 5 35 км н/о +10.2 +4.5 68 +7 +7 1027.3 994.6
14 17.09 СЗ 5 30 км н/о +10.1 +3.7 64 +7 +7 1027.8 995.1
15 17.09 СЗ 5 30 км н/о +10.2 +2.9 60 +8 +8 1027.6 994.9
16 17.09 СЗ 6 28 км н/о +9.7 +2.9 63 +7 +7 1027.5 994.7
17 17.09 СЗ 4 26 км н/о +9.4 +3.8 68 +7 +7 1027.4 994.6
18 17.09 З 3 24 км н/о +9.0 +4.6 74 +7 +7 1027.7 994.8 +10.6 0.6
19 17.09 З 1 21 км н/о +7.9 +5.0 82 +8 +8 1028.1 995.1
20 17.09 СЗ 1 21 км в посл. час дождь н/о +7.2 +5.1 86 +6 +6 1028.6 995.4
21 17.09 СЗ 2 18 км слаб. ливневой дождь н/о +7.1 +5.4 89 +5 +5 1029.0 995.8
22 17.09 З 1 20 км в посл. час дождь н/о +7.0 +5.7 91 +7 +7 1028.8 995.6
23 17.09 З 1 11 км дождь н/о +6.8 +5.5 91 +7 +7 1028.8 995.6
00 18.09 ЮВ 1 19 км слаб. дождь н/о +6.7 +5.7 93 +6 +6 1028.5 995.3 0.8
01 18.09 СВ 2 5000 м морось н/о +6.6 +5.5 93 +4 +4 1028.3 995.1
02 18.09 В 4 5000 м слаб. морось н/о +6.4 +5.6 95 +3 +3 1027.8 994.6
03 18.09 В 3 6000 м слаб. дождь н/о +6.3 +5.8 97 +3 +3 1027.2 994.0
04 18.09 В 4 7000 м слаб. дождь н/о +6.3 +5.9 97 +3 +3 1026.8 993.6
05 18.09 В 4 7000 м слаб. дождь н/о +6.7 +6.3 97 +3 +3 1026.5 993.3
06 18.09 В 2 4000 м дождь н/о +7.0 +6.7 98 +5 +5 1026.3 993.2 +6.3 4
07 18.09 В 1 4200 м дождь н/о +7.4 +7.0 97 +6 +6 1026.3 993.3
08 18.09 В 1 29 км слаб. дождь н/о +7.9 +7.6 98 +7 +7 1026.4 993.4
09 18.09 В 2 11 км слаб. дождь н/о +9.0 +8.7 98 +7 +7 1026.5 993.7
10 18.09 В 2 6000 м слаб. морось н/о +10.3 +9.9 97 +9 +9 1026.6 993.9
11 18.09 ЮВ 1 9000 м морось с дождем н/о +12.9 +12.5 97 +14 +14 1026.5 994.1
12 18.09 З 5 3700 м слаб. ливневой дождь н/о +13.7 +12.7 94 +12 +12 1026.6 994.3 2
13 18.09 З 5 50 км в посл. час дождь н/о +14.8 +12.5 86 +13 +13 1026.7 994.4
14 18.09 З 5 35 км н/о +14.5 +12.0 85 +13 +13 1027.0 994.7
15 18.09 З 4 5000 м слаб. ливневой дождь н/о +14.1 +12.5 90 +13 +13 1027.4 995.0
16 18.09 З 4 50 км в посл. час дождь н/о +13.9 +12.6 92 +12 +12 1027.5 995.2
17 18.09 З 5 50 км н/о +13.5 +11.7 89 +12 +12 1028.0 995.6
18 18.09 З 3 7000 м дождь н/о +12.8 +11.8 94 +11 +11 1028.2 995.7 +14.8 2
19 18.09 З 3 10 км в посл. час дождь н/о +12.6 +11.8 95 +11 +11 1028.4 995.9
20 18.09 СЗ 2 23 км н/о +12.3 +11.6 95 +11 +11 1028.8 996.3
21 18.09 З 2 30 км н/о +12.3 +11.5 95 +11 +11 1028.9 996.4
22 18.09 З 1 50 км в посл. час дождь н/о +11.9 +11.2 95 +12 +12 1029.0 996.4
23 18.09 штиль 0 50 км н/о +10.8 +10.2 96 +10 +10 1029.4 996.7
00 19.09 штиль 0 50 км н/о +11.0 +10.5 97 +10 +10 1029.4 996.6 0.2
01 19.09 Ю 1 50 км н/о +11.2 +10.7 97 +12 +12 1029.2 996.5
02 19.09 Ю 1 40 км н/о +10.9 +10.5 97 +11 +11 1029.0 996.2
03 19.09 СЗ 2 50 км н/о +11.3 +10.9 97 +10 +10 1028.8 996.1
04 19.09 ЮЗ 2 50 км н/о +11.9 +11.1 95 +11 +11 1028.4 995.8
05 19.09 СЗ 2 50 км н/о +11.5 +10.5 94 +10 +10 1028.4 995.8
06 19.09 З 3 50 км н/о +11.6 +10.6 94 +10 +10 1028.6 995.9 +10.8 0.2
07 19.09 СЗ 4 50 км н/о +11.8 +10.4 91 +10 +10 1028.5 995.9
08 19.09 ЮЗ 3 45 км н/о +12.6 +10.4 86 +11 +11 1028.8 996.2
09 19.09 З 4 50 км н/о +13.2 +10.6 84 +12 +12 1028.8 996.3
10 19.09 З 4 40 км н/о +14.6 +11.0 79 +13 +13 1028.7 996.4
11 19.09 СЗ 5 50 км н/о +14.3 +10.8 79 +13 +13 1028.6 996.2
12 19.09 СЗ 5 45 км н/о +15.1 +11.0 76 +14 +14 1028.3 996.1
13 19.09 З 5 50 км н/о +16.0 +11.7 76 +15 +15 1028.1 996.0
14 19.09 З 4 40 км н/о +17.1 +12.0 72 +17 +17 1027.7 995.7
15 19.09 З 4 35 км н/о +16.5 +10.9 69 +16 +16 1027.5 995.5
16 19.09 З 3 50 км н/о +16.2 +11.1 72 +16 +16 1027.5 995.4
17 19.09 СЗ 4 35 км н/о +13.9 +10.6 80 +12 +12 1027.8 995.5
18 19.09 СЗ 5 50 км н/о +12.0 +10.1 88 +9 +9 1028.0 995.5 +17.2
19 19.09 З 2 30 км н/о +10.0 +9.1 94 +8 +8 1028.4 995.5
20 19.09 З 3 50 км н/о +7.6 +6.8 95 +5 +5 1028.6 995.6
21 19.09 З 1 30 км н/о +5.8 +4.8 93 +6 +6 1029.0 995.7
22 19.09 З 1 45 км н/о +4.3 +3.6 95 +4 +4 1029.4 995.9
23 19.09 СЗ 1 50 км н/о +3.9 +3.3 96 +3 +3 1029.2 995.6
00 20.09 З 1 40 км в посл. час туман н/о +3.4 +3.0 97 +3 +3 1028.7 995.1
01 20.09 ЮЗ 1 40 км н/о +3.5 +3.1 97 +3 +3 1028.2 994.7

 

Местоположение метеостанции Озеро Гласкарнок (Великобритания): широта 57.72 долгота -4.88 высота над уровнем моря 264 м.

В архиве по умолчанию представлена погода на Озере Гласкарнок за последнюю неделю. Архивные данные за месяц целиком и за предыдущие месяцы, начиная с января 2011 года, Вы можете получить, выбрав интересующий диапазон дат из раскрывающегося списка и нажав кнопку "Ввод!".


*Определитесь, кто Вы:
робот инопланетянин человек

Внимание! Время в таблицах - всемирное. Для получения местного времени необходимо прибавить поправку, которая равна 0 ч.

Смотрите также архив погоды в соседних городах и на ближайших метеорологических станциях:

Погода в Олтбее (Великобритания) (47 км)
Погода в Тейн-Рендже (Великобритания) (55 км)
Погода на Перевале Bealach Na Ba (Великобритания) (58 км)
Погода на Алтнахарре (Великобритания) (68 км)
Погода на Скае (Великобритания) (76 км)
Погода в Кинлоссе (Великобритания) (78 км)
Погода на Авморе (Великобритания) (85 км)
Погода в Лоссимуте (Великобритания) (93 км)
Погода на Станции Tulloch Bridge (Великобритания) (95 км)
Погода на Горе Аонах Мор (Великобритания) (100 км)

Пояснения к столбцам:

Ветер - указаны скорость ветра в м/с - средняя за 10 мин, порывы в срок и между сроками (в фигурных скобках) и направление, откуда дует ветер: С - северный, СВ - северо-восточный, В - восточный, ЮВ - юго-восточный, Ю - южный, ЮЗ - юго-западный, З - западный, СЗ - северо-западный.
Видимость - горизонтальная дальность видимости в метрах или километрах. При видимости от 1 до 10 км при отсутствии осадков обычно наблюдается дымка, при ухудшении видимости до 1 км и менее - туман. В сухую погоду видимость может ухудшаться дымом, пылью или мглою.
Явления - указаны атмосферные явления, наблюдавшиеся в срок или в последний час перед сроком; фигурными скобками обозначены явления, наблюдавшиеся между сроками (за 1-3 часа до срока); квадратными скобками обозначены град или гололедные отложения с указанием их диаметра в мм.
Облачность - указаны через наклонную черту общая и нижняя облачность в баллах и высота нижней границы облаков в метрах; квадратными скобками обозначены формы облаков: Ci - перистые, Cs - перисто-слоистые, Cc - перисто-кучевые, Ac - высококучевые, As - высокослоистые, Sc - слоисто-кучевые, Ns - слоисто-дождевые, Cu - кучевые, Cb - кучево-дождевые. Подробнее классификацию облаков см. в Атласе облаков (PDF).
T - Температура воздуха - температура, измеренная на высоте 2 м над землей.
Td - Температура точки росы - температура, при понижении до которой содержащийся в воздухе водяной пар достигнет насыщения.
f - Относительная влажность воздуха - влажноcть воздуха, измеренная на высоте 2 м над землей.
Te - Эффективная температура - температура, которую ощущает одетый по сезону человек в тени. Характеристика душности погоды. При расчете учитывается влияние влажности воздуха и скорости ветра на теплоощущения человека.
Tes - Эффективная температура на солнце - температура, которую ощущает человек, с поправкой на солнечный нагрев. Характеристика знойности погоды. Зависит от высоты солнца над горизонтом, облачности и скорости ветра. Ночью, в пасмурную погоду, а также при ветре 12 м/с и более поправка равна нулю.
P - Атмосферное давление - приведенное к уровню моря атмосферное давление.
Po - Атмосферное давление - измеренное на уровне метеостанции атмосферное давление.
Tmin - Минимальная температура - минимум температуры воздуха на высоте 2 м над землей.
Tmax - Максимальная температура - максимум температуры воздуха на высоте 2 м над землей.
R - Количество осадков - Количество выпавших осадков за период времени, мм. При наведении курсора мыши на число - период времени, за который выпало указанное количество осадков.
R24 - Количество осадков - Количество выпавших осадков за 24 часа, мм.
S - Снежный покров - Высота снежного покрова, см. При наведении курсора мыши на число - состояние снежного покрова и степень покрытия местности в баллах.